Tracking 22779 objects as of 15-Apr-2021
HD Live streaming from Space Station
objects crossing your sky now

METEOR 2-17 DEB

Track METEOR 2-17 DEB now!
10-day predictions


NORAD ID: 28991
Int'l Code: 1988-005F
Perigee: 904.0 km
Apogee: 918.4 km
Inclination: 82.5 °
Period: 103.1 minutes
Semi major axis: 7282 km
RCS: 0.0099 m2 (small)
Launch date: January 30, 1988
Source: Commonwealth of Independent States (former USSR) (CIS)
Launch site: PLESETSK MISSILE AND SPACE COMPLEX (PKMTR)

Note: This is SATELLITE DEBRIS
aabbcc
Your satellite tracking list
Your tracking list is empty




NASA's NSSDC Master Catalog

Two Line Element Set (TLE):
1 28991U 88005F   21104.08994149 -.00000117  00000-0 -94778-4 0  9992
2 28991  82.5313 333.0712 0009907 292.4421 220.9055 13.97045511801065
Source of the keplerian elements: AFSPC